Location: Tom
(33.0437°N, 96.9452°W)
Time: 14:57:38
(UTC-05:00)

ISS - Visible Passes

Search period start: 18 March 2019 00:00
Search period end: 28 March 2019 00:00
Orbit: 406 x 411 km, 51.6° (Epoch: 19 March)

Date Brightness Start Highest point End Pass type
(mag) Time Alt. Az. Time Alt. Az. Time Alt. Az.
18 Mar -2.8 06:31:52 26° WSW 06:32:11 27° SW 06:35:00 10° S visible
18 Mar -1.1 21:30:05 10° SW 21:30:31 13° SW 21:30:31 13° SW visible
19 Mar -1.1 05:44:09 12° SSE 05:44:09 12° SSE 05:44:30 10° SE visible
19 Mar -3.0 20:39:29 10° SSW 20:42:26 31° SE 20:42:57 29° ESE visible
20 Mar -2.4 21:24:48 10° WSW 21:27:52 36° NW 21:28:01 36° NNW visible
21 Mar -3.7 20:33:31 10° SW 20:36:48 77° NW 20:40:02 10° NE visible
22 Mar -0.9 21:20:25 10° WNW 21:22:31 16° NNW 21:24:36 10° N visible
23 Mar -1.7 20:28:27 10° W 20:31:18 26° NW 20:34:09 10° NNE visible
25 Mar -0.8 20:24:26 10° WNW 20:25:57 13° NNW 20:27:28 10° N visible
